This is the latest recevied weather packets stored in our database for station/object K3BAY-1. If no packets are shown the sender has not sent any weather packets the latest 10 day(s).
| Time | Temp. | Humidity | Pressure | Rain* | Wind** | Luminosity | Snow |
|---|---|---|---|---|---|---|---|
| 1777678670 | 15° C | 55% | 1011.5 hPa | 0 mm | - | 9 W/m² | - |
| 1777678367 | 15° C | 55% | 1011.9 hPa | 0 mm | - | 12 W/m² | - |
| 1777678062 | 15.56° C | 53% | 1011.9 hPa | 0 mm | - | 16 W/m² | - |
| 1777677759 | 15.56° C | 53% | 1011.9 hPa | 0 mm | - | 16 W/m² | - |
| 1777677457 | 15.56° C | 53% | 1012.2 hPa | 0 mm | - | 17 W/m² | - |
| 1777677155 | 15.56° C | 54% | 1012.2 hPa | 0 mm | - | 18 W/m² | - |
| 1777676853 | 16.11° C | 51% | 1012.2 hPa | 0 mm | - | 21 W/m² | - |
| 1777676551 | 16.11° C | 51% | 1012.2 hPa | 0 mm | - | 21 W/m² | - |
| 1777676243 | 16.67° C | 50% | 1012.6 hPa | 0 mm | - | 41 W/m² | - |
| 1777675940 | 17.22° C | 49% | 1012.6 hPa | 0 mm | - | 36 W/m² | - |
| 1777675636 | 17.22° C | 49% | 1012.6 hPa | 0 mm | - | 36 W/m² | - |
| 1777675334 | 17.22° C | 50% | 1012.9 hPa | 0 mm | - | 55 W/m² | - |
| 1777675030 | 17.22° C | 50% | 1012.9 hPa | 0 mm | - | 83 W/m² | - |
| 1777674727 | 17.22° C | 50% | 1013.2 hPa | 0 mm | - | 86 W/m² | - |
| 1777674423 | 17.22° C | 51% | 1012.9 hPa | 0 mm | - | 117 W/m² | - |
| 1777674121 | 17.78° C | 50% | 1013.6 hPa | 0 mm | - | 130 W/m² | - |
| 1777673816 | 17.78° C | 50% | 1013.6 hPa | 0 mm | - | 144 W/m² | - |
| 1777673514 | 17.78° C | 50% | 1013.6 hPa | 0 mm | - | 157 W/m² | - |
| 1777673212 | 17.78° C | 50% | 1013.9 hPa | 0 mm | - | 186 W/m² | - |
| 1777672909 | 17.78° C | 50% | 1014.2 hPa | 0 mm | - | 205 W/m² | - |
| 1777672605 | 17.78° C | 49% | 1014.2 hPa | 0 mm | - | 225 W/m² | - |
| 1777672300 | 17.78° C | 49% | 1014.2 hPa | 0 mm | - | 225 W/m² | - |
| 1777671995 | 17.22° C | 49% | 1015.3 hPa | 0 mm | - | 241 W/m² | - |
| 1777671690 | 17.22° C | 49% | 1015.3 hPa | 0 mm | - | 241 W/m² | - |
| 1777671144 | 17.22° C | 49% | 1016.3 hPa | 0 mm | - | 304 W/m² | - |
* Rain latest hour (hover to see other rain measurements)
** Current wind speed in m/s (hover to see current wind gust speed)